Regional Weather Roundup
Issued by NWS

Home | Current Version | Previous Version | Text Only | Print | Product List | Glossary On
Versions: 1 2 3 4 5 6 7 8 9 10 11 12 13 14 15 16 17 18 19 20 21 22 23 24 25 26 27 28 29 30 31 32 33 34 35 36 37 38 39 40 41 42 43 44 45 46 47 48 49 50
000
ASUS46 KPQR 301910
RWROR

OREGON REGIONAL WEATHER ROUNDUP
NATIONAL WEATHER SERVICE PORTLAND OR
1200 PM PDT SUN APR 30 2017

NOTE: "FAIR" INDICATES FEW OR NO CLOUDS BELOW 12,000 FEET WITH
NO SIGNIFICANT WEATHER AND/OR OBSTRUCTIONS TO VISIBILITY.

ORZ001>013-302000-
NORTHWEST OREGON


CITY           SKY/WX    TMP DP  RH WIND       PRES   REMARKS
ASTORIA        CLOUDY    52  40  63 NW15      30.37R
NEWPORT        SUNNY     54  43  66 NW14      30.42R
PORTLAND       PTSUNNY   54  37  52 N6        30.36R
VANCOUVER WA   CLOUDY    55  39  54 N6        30.36R
SCAPPOOSE      LGT RAIN  52  40  63 W6        30.36R
HILLSBORO      CLOUDY    55  40  56 NW10      30.35R
AURORA         CLOUDY    55  38  52 CALM      30.36R
MCMINNVILLE    CLOUDY    56  40  55 NW6       30.36R
SALEM          PTSUNNY   55  38  52 NW9       30.35R
CORVALLIS      MOSUNNY   57  41  54 N3        30.37R
EUGENE         PTSUNNY   55  49  80 NE6       30.37R
$$

ORZ021-028-302000-
SOUTHWEST OREGON


CITY           SKY/WX    TMP DP  RH WIND       PRES   REMARKS
NORTH BEND     CLOUDY    55  45  67 N9        30.42R
BROOKINGS      MOSUNNY   58  51  78 VRB7      30.35F
ROSEBURG       MOSUNNY   62  47  57 N5        30.34S
SEXTON SUMMIT  MOSUNNY   49  38  65 VRB6      30.32S
MEDFORD        MOSUNNY   62  46  55 NE5       30.32R
$$

ORZ014>016-041-302000-
COLUMBIA GORGE


CITY           SKY/WX    TMP DP  RH WIND       PRES   REMARKS
TROUTDALE      CLOUDY    56  38  50 W6        30.35R
HOOD RIVER     MOSUNNY   55  36  47 W6        30.27S
THE DALLES     SUNNY     62  38  40 W23G36    30.23R
$$

ORZ029>031-041-044-049-050-061>064-502-503-505>511-302000-
EASTERN OREGON


CITY           SKY/WX    TMP DP  RH WIND       PRES   REMARKS
REDMOND        SUNNY     59  26  28 NW22G31   30.21R
BEND           PTSUNNY   57  28  33 NW9G18    30.20S
PRINEVILLE     MOSUNNY   59  32  36 W26G35    30.20S
KLAMATH FALLS  PTSUNNY   55  38  52 NW12      30.26R
LAKEVIEW       CLOUDY    52  36  54 S10G16    30.26R
HERMISTON      SUNNY     65  40  39 W23G37    30.13R
PENDLETON      PTSUNNY   60  46  59 W25G32    30.12S
JOHN DAY       MOSUNNY   58  40  51 W3        30.16F
MEACHAM        PTSUNNY   49  37  63 VRB3      30.14R
LA GRANDE      CLOUDY    54  43  66 SW5       30.13S
BAKER CITY     PTSUNNY   56  35  45 NW7       30.12F
BURNS          MOSUNNY   56  33  42 W15G21    30.18F
ROME             N/A     63  35  35 NW7       30.15F
ONTARIO        CLOUDY    65  39  38 VRB7      30.13F
$$



USA.gov is the U.S. government's official web portal to all federal, state and local government web resources and services.